[[{"header":{"parameterUnit":"m.s-1","parameterCategory":1,"la1":30.2991,"la2":30.254,"lo1":-89.0895,"lo2":-89.0444,"dy":0.0017,"dx":0.0017,"nx":28,"ny":28,"refTime":"2024-07-19T03:00:00:Z","depth":0,"parameterNumber":2,"parameterNumberName":"U-component_of_WINDS"},"data":[0,0,0,0,0,0,0,0,0,0,0,0,0,0,0,0,0,0,0,0,0,0,0,0,0,0,0,0,0,0,0,0,0,0,0,0,0,0,0,0,0,0,0,0,0,0,0,0,0,0,0,0,0,0,0,0,0,0,1.4479,1.448,0,1.4613,1.4614,1.4616,1.4615,1.4613,1.4611,1.461,1.4748,1.4754,1.4759,0,0,0,0,0,0,0,0,0,0,0,0,0,1.4224,1.4229,1.4479,1.448,1.4482,1.4613,1.4614,1.4616,1.4615,1.4613,1.4611,1.4609,1.4747,1.4753,1.4759,0,0,0,0,0,0,0,0,0,0,0,0,0,1.4344,1.423,1.4478,1.4497,1.45,1.4612,1.4614,1.4617,1.4616,1.4613,1.461,1.4608,1.4745,1.4752,1.476,1.4863,0,0,1.4785,1.4788,0,0,0,0,0,0,0,0,1.4337,1.4353,1.4493,1.4496,1.45,1.4594,1.4575,1.4699,1.4616,1.4572,1.461,1.4607,1.4699,1.4711,1.4742,1.4869,1.4875,1.4785,1.479,1.4794,1.4796,0,0,0,0,0,0,0,1.4329,1.4348,1.4532,1.4495,1.4499,1.45,1.4514,1.4599,1.4649,1.4576,1.4576,1.4592,1.4701,1.4734,1.4745,1.4877,1.4785,1.4792,1.4797,1.48,1.5097,1.5099,0,0,0,0,0,0,1.4317,1.4341,1.4528,1.4536,1.441,1.4506,1.4522,1.4567,1.4648,1.4658,1.4594,1.4591,1.4722,1.4736,1.475,1.4876,1.4794,1.4801,1.4806,1.5094,1.5097,1.5101,0,0,0,0,0,0,1.4311,1.4333,1.4522,1.4438,1.4463,1.4514,1.4564,1.4571,1.4604,1.4662,1.4671,1.4619,1.472,1.4739,1.4835,1.4881,1.4805,1.4812,1.509,1.5095,1.5099,1.5129,0,0,0,0,0,0,1.4304,1.4331,1.437,1.4439,1.4467,1.4604,1.4566,1.4575,1.4618,1.4616,1.4687,1.4697,1.472,1.4823,1.4843,1.4891,1.4818,1.5086,1.5092,1.5097,1.5124,1.5134,1.5142,0,0,0,0,0,1.4295,1.4373,1.4372,1.4395,1.4517,1.4607,1.4623,1.4647,1.4621,1.4661,1.4699,1.4695,1.4873,1.4833,1.4855,1.4906,1.5083,1.509,1.5097,1.512,1.5132,1.5142,0,0,0,0,0,0,1.4309,1.4383,1.4382,1.4485,1.454,1.4606,1.4658,1.4659,1.4722,1.4717,1.4745,1.4761,1.4858,1.4891,1.4846,1.501,1.4975,1.4987,1.4985,1.4997,1.5005,1.4996,1.4825,0,0,0,0,0,1.4324,1.439,1.4451,1.4537,1.4564,1.4606,1.4646,1.466,1.4718,1.4741,1.4785,1.4842,1.4911,1.4955,1.5022,1.5129,1.5145,1.5175,1.5184,1.5191,1.5201,1.5261,1.5276,1.5123,1.5123,1.5123,0,0,1.4355,1.4404,1.4444,1.4541,1.4584,1.4653,1.4625,1.4699,1.4751,1.4752,1.4846,1.488,1.4945,1.5048,1.5095,1.5079,1.5247,1.52,1.5205,1.5212,1.527,1.5284,1.5297,1.5128,1.5127,1.5126,0,0,1.4449,1.4492,1.4568,1.4613,1.4679,1.4707,1.4725,1.4792,1.4815,1.4909,1.4912,1.4974,1.5091,1.5138,1.5177,1.5289,1.5288,1.531,1.5358,1.5416,1.5428,1.5439,1.548,1.5494,1.532,1.532,1.532,0,1.448,1.4584,1.4607,1.4682,1.4725,1.4729,1.4807,1.4849,1.4934,1.4963,1.4944,1.5092,1.5136,1.525,1.5277,1.5309,1.5331,1.5302,1.5425,1.5436,1.5446,1.5485,1.5501,1.5322,1.5322,1.5321,1.5321,0,1.4619,1.4691,1.4745,1.4827,1.4875,1.4951,1.4987,1.5034,1.5044,1.5073,1.517,1.5223,1.5301,1.5328,1.5339,1.5444,1.5432,1.5419,1.5384,1.5463,1.55,1.5515,1.5325,1.5324,1.5324,1.5323,0,0,1.4725,1.482,1.4839,1.4877,1.4951,1.5007,1.5083,1.5159,1.5199,1.5257,1.5323,1.5423,1.5411,1.5455,1.5471,1.5522,1.5608,1.5502,1.5504,1.5521,1.5729,1.5739,1.5756,1.5608,1.5611,1.5613,1.5723,0,1.4827,1.4963,1.4986,1.5105,1.5172,1.5177,1.5244,1.5297,1.5327,1.5389,1.5423,1.5493,1.5471,1.5498,1.5549,1.5587,1.565,1.5579,1.567,1.5673,1.5654,1.5775,1.5786,1.5888,1.5738,1.5741,1.5742,0,1.4964,1.5026,1.5152,1.5217,1.5246,1.5306,1.5377,1.5436,1.5497,1.5515,1.5565,1.5575,1.5656,1.5617,1.5729,1.568,1.5718,1.5743,1.5747,1.5757,1.5713,1.5789,1.5921,1.5936,1.5765,1.5764,1.5762,0,1.503,1.5145,1.5235,1.5267,1.5346,1.5387,1.5422,1.548,1.5524,1.5587,1.5616,1.5688,1.5727,1.5783,1.5812,1.5781,1.5922,1.5886,1.5941,1.594,1.5971,1.5968,1.6111,1.5994,1.5994,1.5994,1.5993,0,1.5142,1.5219,1.5266,1.5321,1.5408,1.5434,1.5519,1.5553,1.5605,1.5668,1.5677,1.5735,1.577,1.5835,1.5858,1.5948,1.5965,1.5983,1.5989,1.5983,1.5981,1.6009,1.6003,1.5998,1.5997,1.5996,1.5995,0,1.523,1.5265,1.5364,1.543,1.5448,1.5509,1.5566,1.5621,1.5651,1.573,1.575,1.5798,1.5874,1.5909,1.6003,1.6019,1.6121,1.6121,1.6101,1.6103,1.6156,1.6151,1.6322,1.6347,1.6213,1.6214,1.6215,0,1.53,1.5359,1.5432,1.5474,1.551,1.5578,1.5623,1.5652,1.5699,1.5773,1.5819,1.5895,1.5958,1.6079,1.6123,1.6195,1.6198,1.6253,1.6209,1.6201,1.62,1.6196,1.6202,1.6261,1.6262,1.6263,1.6264,0,1.542,1.5434,1.5498,1.557,1.5623,1.568,1.5737,1.5771,1.5809,1.5861,1.5939,1.5987,1.6084,1.616,1.6235,1.6271,1.6275,1.6277,1.6294,1.6289,1.6275,1.6284,1.6123,1.6274,1.6273,1.6272,1.6271,1.6271,1.5502,1.5555,1.5614,1.5686,1.5731,1.5784,1.5839,1.5875,1.594,1.6021,1.6034,1.6117,1.6177,1.6278,1.6318,1.6384,1.6371,1.6395,1.6401,1.6407,1.641,1.6264,1.6397,1.6397,1.6397,1.6397,1.6397,0,1.5623,1.5661,1.5727,1.5806,1.5862,1.586,1.5922,1.597,1.6043,1.6098,1.6159,1.6249,1.6323,1.6372,1.6447,1.6491,1.6494,1.6509,1.6507,1.6516,1.6417,1.6395,1.6505,1.6505,1.6505,1.6505,1.6505,1.6505,1.5693,1.5783,1.5804,1.5917,1.5955,1.6036,1.6072,1.6121,1.6165,1.6265,1.6326,1.6358,1.6411,1.649,1.6558,1.6571,1.6598,1.6614,1.6627,1.6534,1.6522,1.6512,1.6491,1.662,1.662,1.672,1.6721,1.6721]},{"header":{"parameterUnit":"m.s-1","parameterCategory":1,"la1":30.2991,"la2":30.254,"lo1":-89.0895,"lo2":-89.0444,"dy":0.0017,"dx":0.0017,"nx":28,"ny":28,"refTime":"2024-07-19T03:00:00:Z","depth":0,"parameterNumber":3,"parameterNumberName":"V-component_of_WINDS"},"data":[0,0,0,0,0,0,0,0,0,0,0,0,0,0,0,0,0,0,0,0,0,0,0,0,0,0,0,0,0,0,0,0,0,0,0,0,0,0,0,0,0,0,0,0,0,0,0,0,0,0,0,0,0,0,0,0,0,0,0.0043,0.0045,0,0.025,0.0253,0.0255,0.0252,0.0249,0.0247,0.0244,0.0465,0.0473,0.0481,0,0,0,0,0,0,0,0,0,0,0,0,0,-0.0349,-0.0342,0.0042,0.0045,0.0048,0.025,0.0253,0.0256,0.0253,0.0249,0.0246,0.0243,0.0462,0.0472,0.0482,0,0,0,0,0,0,0,0,0,0,0,0,0,-0.0164,-0.034,0.0042,0.007,0.0075,0.0249,0.0253,0.0257,0.0253,0.0249,0.0245,0.0241,0.0458,0.0471,0.0483,0.0646,0,0,0.0522,0.0528,0,0,0,0,0,0,0,0,-0.0174,-0.015,0.0063,0.0069,0.0074,0.0221,0.0196,0.0387,0.0254,0.0186,0.0244,0.0239,0.0387,0.0406,0.0454,0.0656,0.0666,0.0523,0.0531,0.0537,0.054,0,0,0,0,0,0,0,-0.0187,-0.0158,0.0125,0.0067,0.0073,0.0075,0.0097,0.0232,0.0308,0.0191,0.0192,0.0216,0.039,0.0442,0.0459,0.0669,0.0523,0.0534,0.0542,0.0547,0.1019,0.1023,0,0,0,0,0,0,-0.0207,-0.0169,0.0118,0.0131,-0.0063,0.0086,0.011,0.0178,0.0306,0.0322,0.0219,0.0215,0.0422,0.0444,0.0467,0.0669,0.0536,0.0548,0.0556,0.1014,0.102,0.1025,0,0,0,0,0,0,-0.0216,-0.0182,0.011,-0.0019,0.0018,0.0097,0.0174,0.0184,0.0237,0.0327,0.0342,0.0258,0.042,0.0449,0.0602,0.0676,0.0554,0.0566,0.1008,0.1016,0.1022,0.1072,0,0,0,0,0,0,-0.0227,-0.0185,-0.0124,-0.0018,0.0025,0.0239,0.0178,0.0192,0.0258,0.0254,0.0368,0.0383,0.0419,0.0583,0.0614,0.0692,0.0576,0.1002,0.1011,0.102,0.1064,0.108,0.1094,0,0,0,0,0,-0.0241,-0.0117,-0.0121,-0.0086,0.0102,0.0243,0.0268,0.0305,0.0264,0.0327,0.0385,0.0379,0.0662,0.0598,0.0634,0.0716,0.0997,0.1009,0.1019,0.1057,0.1077,0.1093,0,0,0,0,0,0,-0.0214,-0.0103,-0.0105,0.0056,0.014,0.0242,0.0323,0.0324,0.0423,0.0416,0.0459,0.0485,0.0639,0.0692,0.0619,0.0882,0.0825,0.0844,0.0842,0.0861,0.0876,0.0861,0.0586,0,0,0,0,0,-0.019,-0.0088,0.0005,0.0139,0.018,0.0244,0.0307,0.0328,0.0418,0.0454,0.0524,0.0614,0.0723,0.0794,0.09,0.107,0.1097,0.1145,0.1159,0.1171,0.1188,0.1286,0.1309,0.1061,0.1061,0.1061,0,0,-0.0138,-0.0065,-0.0002,0.0146,0.0213,0.0322,0.0275,0.0391,0.0473,0.0473,0.0622,0.0675,0.0779,0.0942,0.1017,0.0991,0.1262,0.1185,0.1194,0.1205,0.13,0.1323,0.1344,0.1069,0.1067,0.1066,0,0,0.0013,0.0077,0.0196,0.0265,0.0367,0.0409,0.0437,0.054,0.0576,0.0724,0.0728,0.0827,0.1013,0.1087,0.115,0.1329,0.1328,0.1362,0.1441,0.1536,0.1555,0.1573,0.1641,0.1664,0.1377,0.1378,0.1378,0,0.0066,0.0226,0.0259,0.0376,0.0442,0.0444,0.0568,0.0633,0.0766,0.0813,0.0781,0.1017,0.1086,0.1268,0.1312,0.136,0.1398,0.1351,0.1549,0.1567,0.1584,0.1649,0.1674,0.1381,0.1381,0.1381,0.138,0,0.0288,0.04,0.0484,0.061,0.0686,0.0805,0.0859,0.0932,0.0946,0.0992,0.1146,0.1228,0.1352,0.1396,0.1411,0.1581,0.1562,0.1539,0.1484,0.1611,0.1673,0.1698,0.1387,0.1385,0.1384,0.1383,0,0,0.0464,0.0605,0.0637,0.0695,0.0807,0.0896,0.1017,0.1135,0.1199,0.129,0.1395,0.1552,0.1532,0.1603,0.1626,0.1709,0.185,0.1676,0.1679,0.1709,0.2047,0.2066,0.2094,0.1848,0.1853,0.1857,0.2039,0,0.063,0.0842,0.0875,0.1063,0.1169,0.1172,0.1278,0.136,0.1406,0.1505,0.1556,0.1669,0.1631,0.1674,0.1756,0.1815,0.1919,0.1802,0.1951,0.1955,0.1928,0.2126,0.2147,0.2315,0.2063,0.2067,0.207,0,0.0852,0.0948,0.1146,0.1246,0.1291,0.1385,0.1498,0.159,0.1685,0.1713,0.1791,0.1805,0.1934,0.1869,0.2049,0.1969,0.2031,0.207,0.2077,0.2096,0.2023,0.2154,0.2369,0.2396,0.2108,0.2105,0.2102,0,0.0966,0.1143,0.1286,0.1335,0.1454,0.1521,0.1574,0.1664,0.1734,0.1832,0.1879,0.1991,0.2055,0.2143,0.2188,0.2136,0.2366,0.2305,0.2397,0.2396,0.2449,0.2445,0.2681,0.2482,0.2481,0.2481,0.248,0,0.115,0.1272,0.1339,0.1427,0.1565,0.1602,0.1738,0.179,0.187,0.197,0.1979,0.2074,0.2126,0.2229,0.2265,0.2411,0.2438,0.2467,0.2476,0.2469,0.2466,0.2513,0.2505,0.2487,0.2486,0.2485,0.2484,0,0.1302,0.135,0.1506,0.1606,0.1634,0.1731,0.1818,0.1905,0.195,0.2077,0.2109,0.2181,0.2303,0.2355,0.2505,0.253,0.2698,0.2696,0.2666,0.267,0.276,0.2752,0.3038,0.3079,0.2849,0.2851,0.2852,0,0.1418,0.1512,0.1621,0.1688,0.1743,0.185,0.1921,0.1961,0.2035,0.215,0.2224,0.2345,0.2445,0.264,0.2708,0.2823,0.2827,0.2919,0.2845,0.2835,0.2834,0.2829,0.2841,0.2934,0.2936,0.2938,0.294,0,0.1621,0.164,0.174,0.1851,0.1934,0.2023,0.211,0.2165,0.2219,0.2303,0.2426,0.2503,0.2656,0.2778,0.2898,0.2956,0.2959,0.2962,0.299,0.2986,0.2966,0.2982,0.2707,0.2956,0.2955,0.2953,0.2953,0.2952,0.1762,0.1846,0.1936,0.2049,0.2118,0.2199,0.2287,0.2341,0.2445,0.2571,0.2589,0.2722,0.2816,0.2976,0.3039,0.3145,0.3123,0.3163,0.3174,0.3184,0.3192,0.2945,0.3167,0.3166,0.3166,0.3166,0.3165,0,0.1968,0.2026,0.2129,0.225,0.2339,0.2329,0.2426,0.2502,0.2618,0.2704,0.2802,0.2945,0.3063,0.3139,0.3259,0.333,0.3335,0.3361,0.3358,0.3373,0.3203,0.3168,0.3355,0.3355,0.3355,0.3355,0.3355,0.3355,0.2087,0.223,0.2261,0.244,0.2498,0.2627,0.2683,0.2759,0.2828,0.2987,0.3085,0.3132,0.3215,0.3341,0.345,0.347,0.3515,0.3543,0.3562,0.3403,0.3384,0.3365,0.3333,0.3552,0.3552,0.3724,0.3725,0.3726]}]]